EW8125 Weather Reports


Display with metric or nautical units.
time (UTC)temp
F
wind
direction
speed
MPH
gust
MPH
rain 1hr
in
rain 24hr
in
rain mn
in
humidity
%
barometer
mb
20260502200005 51 0 0.0 0.0 0.17 0.57 0.57 93 1010.7
20260502195914 51 0 0.0 0.0 0.18 0.57 0.57 93 1010.6
20260502195403 51 131 0.0 1.0 0.20 0.57 0.57 93 1010.7
20260502195103 51 131 0.0 1.0 0.20 0.57 0.57 93 1010.7
20260502194803 51 131 0.0 1.0 0.21 0.57 0.57 93 1010.7
20260502194713 51 131 0.0 1.0 0.22 0.57 0.57 93 1010.7
20260502194203 52 131 0.0 1.0 0.23 0.56 0.56 93 1010.7
20260502193905 52 131 0.0 1.0 0.24 0.56 0.56 93 1010.7
20260502193603 52 0 0.0 0.0 0.24 0.55 0.55 93 1010.7
20260502193303 52 0 0.0 0.0 0.24 0.55 0.55 93 1010.7
20260502193005 52 0 0.0 0.0 0.24 0.54 0.54 93 1010.6
20260502192703 52 0 0.0 0.0 0.24 0.54 0.54 93 1010.7
20260502192403 52 0 0.0 0.0 0.23 0.53 0.53 93 1010.8
20260502192103 52 0 0.0 0.0 0.23 0.52 0.52 93 1010.7
20260502191803 52 0 0.0 0.0 0.21 0.50 0.50 93 1010.8
20260502191713 52 0 0.0 0.0 0.21 0.50 0.50 93 1010.8
20260502191203 52 0 0.0 0.0 0.19 0.47 0.47 93 1010.9
20260502190903 52 0 0.0 0.0 0.17 0.45 0.46 93 1011.0
20260502190603 53 0 0.0 0.0 0.15 0.43 0.43 93 1011.1
20260502190514 53 0 0.0 0.0 0.15 0.43 0.43 93 1011.1
20260502190004 53 0 0.0 0.0 0.13 0.40 0.40 93 1011.1
20260502185703 53 0 0.0 0.0 0.11 0.39 0.39 93 1011.1
20260502185613 53 0 0.0 0.0 0.10 0.38 0.39 93 1011.1
20260502185103 53 132 0.0 1.0 0.09 0.36 0.36 92 1011.1
20260502184804 53 132 0.0 1.0 0.09 0.35 0.35 92 1011.0
20260502184503 53 131 0.0 1.0 0.09 0.34 0.35 92 1010.9
20260502184203 53 154 0.0 1.0 0.08 0.33 0.33 92 1010.9
20260502183903 53 154 0.0 1.0 0.08 0.32 0.32 92 1010.9
20260502183603 54 154 0.0 1.0 0.08 0.31 0.31 92 1010.9
20260502183303 54 139 0.0 1.0 0.07 0.31 0.31 92 1010.8
20260502183003 54 103 0.0 1.0 0.07 0.30 0.30 92 1010.7
20260502182703 54 340 0.0 1.0 0.08 0.30 0.30 92 1010.7
20260502182403 54 340 0.0 1.0 0.09 0.30 0.30 92 1010.6
20260502182103 54 0 0.0 0.0 0.08 0.29 0.29 92 1010.7
20260502181804 54 341 0.0 1.0 0.09 0.29 0.29 92 1010.6
20260502181503 54 341 0.0 1.0 0.09 0.28 0.28 92 1010.6
20260502181203 54 341 0.0 1.0 0.09 0.28 0.28 92 1010.6
20260502180903 54 341 0.0 1.0 0.09 0.28 0.28 92 1010.7
20260502180603 54 0 0.0 0.0 0.10 0.28 0.28 92 1010.8
20260502180303 54 0 0.0 0.0 0.11 0.28 0.28 92 1010.8
20260502170303 56 0 0.0 0.0 0.17 0.17 0.17 90 1011.9
20260502164203 56 342 0.0 1.0 0.11 0.12 0.12 89 1012.3
20260502163903 56 342 0.0 1.0 0.10 0.11 0.11 88 1012.2
20260502163603 57 0 0.0 0.0 0.09 0.10 0.10 88 1012.3
20260502163303 57 0 0.0 0.0 0.08 0.09 0.09 87 1012.3
20260502163003 57 350 0.0 1.0 0.07 0.08 0.08 87 1012.4
20260502162703 58 350 0.0 1.0 0.06 0.07 0.07 86 1012.3
20260502162403 58 359 0.0 1.0 0.05 0.06 0.06 85 1012.2
20260502162105 58 4 0.0 1.0 0.04 0.05 0.05 84 1012.3
20260502161804 58 9 0.0 1.0 0.02 0.03 0.03 83 1012.2
20260502161503 59 12 0.0 1.0 0.02 0.02 0.03 81 1012.3
20260502161203 59 12 0.0 1.0 0.02 0.02 0.02 81 1012.2
20260502160903 60 12 0.0 1.0 0.01 0.02 0.02 80 1012.2
20260502160603 60 0 0.0 0.0 0.00 0.01 0.01 78 1012.2
20260502160303 60 0 0.0 0.0 0.00 0.01 0.01 77 1012.2
20260502152103 62 72 0.0 1.0 0.00 0.01 0.01 72 1012.2
20260502151803 63 72 0.0 1.0 0.00 0.01 0.01 71 1012.2
20260502151503 63 72 0.0 1.0 0.00 0.01 0.01 69 1012.3
20260502151203 63 0 0.0 0.0 0.00 0.01 0.01 69 1012.3
20260502150903 63 0 0.0 0.0 0.00 0.01 0.01 71 1012.4
20260502150813 63 0 0.0 0.0 0.00 0.01 0.01 72 1012.4
20260502150303 63 72 0.0 1.0 0.00 0.01 0.01 73 1012.6
20260502130603 66 181 0.0 3.0 0.00 0.09 0.01 61 1014.0
20260502130303 66 181 0.0 3.0 0.00 0.09 0.01 60 1014.1
20260502123814 65 127 0.0 3.0 0.00 0.09 0.01 62 1014.6
20260502123303 65 107 1.0 3.0 0.00 0.09 0.01 61 1014.8
20260502123003 65 97 1.0 3.0 0.00 0.09 0.01 62 1014.7
20260502122703 66 104 0.0 3.0 0.00 0.09 0.01 60 1014.7
20260502122403 66 149 0.0 3.0 0.00 0.09 0.01 61 1014.8
20260502122103 66 233 0.0 2.0 0.00 0.09 0.01 61 1014.9
20260502121803 66 240 0.0 2.0 0.00 0.09 0.01 61 1014.9
20260502121503 67 67 0.0 3.0 0.00 0.09 0.01 60 1014.9
20260502121203 67 78 0.0 3.0 0.00 0.09 0.01 63 1015.0
20260502120904 67 60 0.0 3.0 0.00 0.09 0.01 61 1014.9
20260502120603 66 75 0.0 2.0 0.00 0.09 0.01 66 1015.0
20260502120303 65 88 1.0 4.0 0.00 0.09 0.01 67 1015.0
20260502115913 65 103 1.0 4.0 0.00 0.09 0.01 60 1015.2
20260502115612 66 134 1.0 4.0 0.00 0.09 0.01 58 1015.2
20260502115104 66 121 0.0 4.0 0.00 0.09 0.01 63 1015.2
20260502114803 66 129 1.0 4.0 0.00 0.09 0.01 62 1015.1
20260502114503 66 196 0.0 2.0 0.00 0.09 0.01 62 1015.2
20260502114203 66 231 0.0 2.0 0.00 0.09 0.01 62 1015.3
20260502113903 65 254 0.0 3.0 0.00 0.09 0.01 64 1015.3
20260502113603 64 244 0.0 3.0 0.00 0.09 0.01 65 1015.4
20260502113303 65 243 0.0 3.0 0.00 0.09 0.01 64 1015.4
20260502113003 64 234 0.0 2.0 0.00 0.09 0.01 63 1015.6
20260502112703 64 202 0.0 5.0 0.00 0.09 0.01 66 1015.6
20260502112403 64 188 0.0 5.0 0.00 0.09 0.01 67 1015.6
20260502112314 64 188 0.0 5.0 0.00 0.09 0.01 66 1015.6
20260502111803 63 174 1.0 6.0 0.00 0.09 0.01 66 1015.7
20260502111503 63 175 1.0 6.0 0.00 0.09 0.01 67 1015.8
20260502111203 63 176 1.0 6.0 0.00 0.09 0.01 62 1015.8
20260502110903 64 174 1.0 6.0 0.00 0.09 0.01 64 1015.8
20260502110603 64 122 0.0 3.0 0.00 0.09 0.01 64 1015.8
20260502110303 64 219 0.0 2.0 0.00 0.09 0.01 68 1015.8
20260502110003 64 204 0.0 2.0 0.00 0.09 0.01 67 1015.8
20260502105703 63 174 0.0 2.0 0.00 0.09 0.01 67 1015.8
20260502105403 63 169 0.0 2.0 0.00 0.09 0.01 67 1015.8
20260502105103 63 145 0.0 2.0 0.00 0.09 0.01 68 1015.7
20260502104803 63 164 0.0 2.0 0.00 0.09 0.01 67 1015.8
20260502104503 63 189 0.0 2.0 0.00 0.09 0.01 68 1015.8
20260502104413 63 187 0.0 2.0 0.00 0.09 0.01 69 1015.8
20260502103903 63 87 0.0 3.0 0.00 0.09 0.01 67 1015.8
20260502103604 63 92 0.0 3.0 0.00 0.09 0.01 69 1016.0
20260502103305 63 101 1.0 3.0 0.00 0.09 0.01 67 1016.0
20260502103003 63 113 0.0 2.0 0.00 0.09 0.01 69 1016.1
20260502102703 63 123 0.0 2.0 0.00 0.09 0.01 69 1016.1
20260502102403 63 147 0.0 4.0 0.00 0.09 0.01 71 1016.1
20260502102103 62 154 0.0 4.0 0.00 0.09 0.01 70 1016.2
20260502101803 62 157 0.0 4.0 0.00 0.09 0.01 72 1016.2
20260502101503 62 144 0.0 2.0 0.00 0.09 0.01 71 1016.1
20260502101203 61 148 0.0 2.0 0.00 0.09 0.01 73 1016.2
20260502100903 62 175 0.0 2.0 0.00 0.09 0.01 71 1016.2
20260502100603 62 305 0.0 1.0 0.00 0.09 0.01 73 1016.1
20260502100303 62 285 0.0 1.0 0.00 0.09 0.01 73 1016.2
20260502100214 62 284 0.0 1.0 0.00 0.09 0.01 74 1016.3
20260502091503 60 48 0.0 2.0 0.00 0.09 0.01 79 1016.5
20260502091205 60 47 0.0 2.0 0.00 0.09 0.01 80 1016.5
20260502090903 60 47 0.0 2.0 0.00 0.09 0.01 81 1016.7
20260502090603 59 46 0.0 2.0 0.00 0.09 0.01 81 1016.7
20260502090303 59 47 0.0 4.0 0.00 0.09 0.01 80 1016.6
20260502071503 47 0 0.0 0.0 0.00 0.09 0.01 95 1017.4
20260502071204 47 0 0.0 0.0 0.00 0.09 0.01 95 1017.3
20260502070904 47 280 0.0 1.0 0.00 0.09 0.01 95 1017.3
20260502070603 47 280 0.0 1.0 0.00 0.09 0.01 96 1017.3
20260502070303 48 280 0.0 1.0 0.00 0.09 0.01 96 1017.3
20260502070004 48 0 0.0 0.0 0.00 0.09 0.01 96 1017.3
20260502065703 47 0 0.0 0.0 0.00 0.09 0.01 96 1017.3
20260502065403 46 0 0.0 0.0 0.00 0.09 0.01 96 1017.4
20260502065103 45 0 0.0 0.0 0.00 0.09 0.01 96 1017.4
20260502064803 45 0 0.0 0.0 0.00 0.09 0.01 96 1017.5
20260502064503 44 0 0.0 0.0 0.00 0.09 0.01 96 1017.5
20260502064203 44 0 0.0 0.0 0.00 0.09 0.01 96 1017.4
20260502063904 44 0 0.0 0.0 0.00 0.09 0.01 96 1017.5
20260502063603 44 0 0.0 0.0 0.00 0.09 0.01 96 1017.5
20260502063303 44 0 0.0 0.0 0.00 0.09 0.01 96 1017.5
20260502063003 44 0 0.0 0.0 0.00 0.09 0.01 96 1017.5
20260502062704 43 0 0.0 0.0 0.00 0.09 0.01 96 1017.5
20260502062403 43 0 0.0 0.0 0.00 0.09 0.01 96 1017.6
20260502062103 43 0 0.0 0.0 0.00 0.09 0.01 96 1017.6
20260502061803 42 0 0.0 0.0 0.00 0.09 0.01 96 1017.6
20260502061714 42 0 0.0 0.0 0.00 0.09 0.01 96 1017.6
20260502061203 42 0 0.0 0.0 0.00 0.09 0.01 95 1017.5
20260502060903 42 0 0.0 0.0 0.00 0.09 0.01 95 1017.5
20260502060603 41 0 0.0 0.0 0.00 0.09 0.01 95 1017.6
20260502060303 41 0 0.0 0.0 0.00 0.09 0.01 95 1017.5
20260502060003 41 0 0.0 0.0 0.00 0.09 0.01 95 1017.5
20260502055913 41 0 0.0 0.0 0.00 0.09 0.01 95 1017.5
20260502055403 41 0 0.0 0.0 0.00 0.09 0.01 95 1017.4
20260502055103 41 0 0.0 0.0 0.00 0.09 0.01 95 1017.4
20260502054803 41 0 0.0 0.0 0.00 0.09 0.01 95 1017.3
20260502054503 41 0 0.0 0.0 0.00 0.09 0.01 95 1017.3
20260502054204 41 0 0.0 0.0 0.00 0.09 0.01 95 1017.3
20260502054113 41 0 0.0 0.0 0.00 0.09 0.01 95 1017.3
20260502053603 41 0 0.0 0.0 0.00 0.09 0.01 95 1017.3
20260502053303 41 0 0.0 0.0 0.00 0.09 0.01 95 1017.3
20260502053003 41 0 0.0 0.0 0.00 0.09 0.01 95 1017.3
20260502052912 41 0 0.0 0.0 0.00 0.09 0.01 95 1017.3
20260502052403 41 0 0.0 0.0 0.00 0.09 0.01 95 1017.4
20260502052314 41 0 0.0 0.0 0.00 0.09 0.01 95 1017.4
20260502051804 40 0 0.0 0.0 0.00 0.09 0.01 95 1017.3
20260502051503 40 0 0.0 0.0 0.00 0.09 0.01 95 1017.2
20260502051203 40 0 0.0 0.0 0.00 0.09 0.01 95 1017.3
20260502050904 40 0 0.0 0.0 0.00 0.09 0.01 95 1017.4
20260502050603 40 0 0.0 0.0 0.00 0.09 0.01 95 1017.4
20260502050303 40 0 0.0 0.0 0.00 0.09 0.01 95 1017.5
20260502050212 40 0 0.0 0.0 0.00 0.09 0.01 95 1017.5
20260502045703 40 0 0.0 0.0 0.00 0.09 0.01 96 1017.4
20260502045403 40 0 0.0 0.0 0.00 0.09 0.01 96 1017.4
20260502045103 40 0 0.0 0.0 0.00 0.09 0.01 96 1017.5
20260502044803 40 0 0.0 0.0 0.00 0.09 0.01 96 1017.5
20260502044715 40 0 0.0 0.0 0.00 0.09 0.01 96 1017.5
20260502044203 40 0 0.0 0.0 0.00 0.09 0.01 95 1017.3
20260502043903 40 0 0.0 0.0 0.00 0.09 0.01 95 1017.3
20260502043603 40 0 0.0 0.0 0.00 0.09 0.01 95 1017.3
20260502043303 39 0 0.0 0.0 0.00 0.09 0.01 95 1017.4
20260502043003 40 0 0.0 0.0 0.00 0.09 0.01 95 1017.3
20260502042703 40 0 0.0 0.0 0.00 0.09 0.01 95 1017.3
20260502042403 40 0 0.0 0.0 0.00 0.09 0.01 95 1017.3
20260502042103 40 0 0.0 0.0 0.00 0.09 0.01 95 1017.4
20260502041803 40 0 0.0 0.0 0.00 0.09 0.01 95 1017.4
20260502041503 40 0 0.0 0.0 0.00 0.09 0.01 96 1017.5
20260502041413 40 0 0.0 0.0 0.00 0.09 0.01 96 1017.4
20260502040903 40 0 0.0 0.0 0.00 0.09 0.01 96 1017.5
20260502040603 40 0 0.0 0.0 0.00 0.09 0.01 96 1017.6
20260502040303 40 0 0.0 0.0 0.00 0.09 0.01 95 1017.6
20260502040003 40 0 0.0 0.0 0.00 0.09 0.01 95 1017.6
20260502035703 40 0 0.0 0.0 0.00 0.09 0.01 95 1017.7
20260502035404 40 0 0.0 0.0 0.00 0.09 0.01 95 1017.8
20260502035103 40 0 0.0 0.0 0.00 0.09 0.01 95 1017.8
20260502034803 40 0 0.0 0.0 0.00 0.09 0.01 95 1017.8
20260502034503 40 0 0.0 0.0 0.00 0.09 0.01 95 1017.8
20260502034203 40 0 0.0 0.0 0.00 0.09 0.01 95 1017.7
20260502033903 40 0 0.0 0.0 0.00 0.09 0.01 95 1017.9
20260502033603 40 0 0.0 0.0 0.01 0.09 0.01 95 1017.7
20260502033303 40 0 0.0 0.0 0.01 0.09 0.01 95 1017.7
20260502033214 40 0 0.0 0.0 0.01 0.09 0.01 95 1017.7
20260502032703 41 0 0.0 0.0 0.01 0.09 0.01 95 1017.8
20260502032403 41 0 0.0 0.0 0.01 0.09 0.01 95 1017.8
20260502032103 41 0 0.0 0.0 0.01 0.09 0.01 95 1017.7
20260502031803 41 0 0.0 0.0 0.01 0.09 0.01 95 1017.8
20260502031503 41 0 0.0 0.0 0.01 0.09 0.01 95 1017.8
20260502031203 42 0 0.0 0.0 0.01 0.09 0.01 96 1017.8
20260502031112 42 0 0.0 0.0 0.01 0.09 0.01 96 1017.8
20260502030603 42 0 0.0 0.0 0.01 0.09 0.01 96 1017.8
20260502030303 42 0 0.0 0.0 0.01 0.09 0.01 95 1017.9
20260502030214 41 0 0.0 0.0 0.01 0.09 0.01 95 1017.9
20260502025703 41 0 0.0 0.0 0.01 0.09 0.01 95 1017.9
20260502025403 41 0 0.0 0.0 0.01 0.09 0.01 95 1017.9
20260502025103 41 0 0.0 0.0 0.01 0.09 0.01 95 1017.9
20260502024803 41 0 0.0 0.0 0.01 0.09 0.01 95 1017.9
20260502024503 42 0 0.0 0.0 0.01 0.09 0.01 95 1017.9
20260502024204 42 0 0.0 0.0 0.01 0.09 0.01 95 1017.9
20260502024114 42 0 0.0 0.0 0.01 0.09 0.01 95 1017.9
20260502023604 42 0 0.0 0.0 0.00 0.09 0.00 95 1017.9
20260502023514 42 0 0.0 0.0 0.00 0.09 0.00 95 1017.9
20260502023003 43 0 0.0 0.0 0.00 0.09 0.00 96 1017.8
20260502022703 43 0 0.0 0.0 0.00 0.09 0.00 96 1017.9
20260502022613 43 0 0.0 0.0 0.00 0.09 0.00 96 1017.9
20260502022103 43 0 0.0 0.0 0.00 0.09 0.00 96 1017.9
20260502021803 43 0 0.0 0.0 0.00 0.09 0.00 96 1018.1
20260502021504 43 0 0.0 0.0 0.00 0.09 0.00 96 1018.0
20260502021203 43 0 0.0 0.0 0.00 0.09 0.00 96 1018.1
20260502020903 43 0 0.0 0.0 0.00 0.09 0.00 95 1018.0
20260502020603 42 0 0.0 0.0 0.00 0.09 0.00 95 1018.0
20260502020303 42 0 0.0 0.0 0.00 0.09 0.00 95 1018.1
20260502020213 42 0 0.0 0.0 0.00 0.09 0.00 95 1018.1
20260502015704 42 0 0.0 0.0 0.00 0.09 0.00 95 1018.2
20260502015403 42 0 0.0 0.0 0.00 0.09 0.00 95 1018.2
20260502015103 42 0 0.0 0.0 0.00 0.09 0.00 95 1018.2
20260502014803 42 0 0.0 0.0 0.00 0.09 0.00 95 1018.1
20260502014504 43 0 0.0 0.0 0.00 0.09 0.00 95 1018.2
20260502014203 43 0 0.0 0.0 0.00 0.09 0.00 95 1018.1
20260502014114 43 0 0.0 0.0 0.00 0.09 0.00 95 1018.1
20260502013603 43 0 0.0 0.0 0.00 0.09 0.00 95 1018.2
20260502013303 43 0 0.0 0.0 0.00 0.09 0.00 95 1018.2
20260502013004 43 0 0.0 0.0 0.00 0.09 0.00 95 1018.2
20260502012703 43 0 0.0 0.0 0.00 0.09 0.00 95 1018.3
20260502012403 43 0 0.0 0.0 0.00 0.09 0.00 95 1018.3
20260502012104 43 0 0.0 0.0 0.00 0.09 0.00 95 1018.3
20260502011803 43 0 0.0 0.0 0.00 0.09 0.00 95 1018.4
20260502011503 43 0 0.0 0.0 0.00 0.09 0.00 95 1018.4
20260502011203 43 0 0.0 0.0 0.00 0.09 0.00 94 1018.5
20260502010903 43 0 0.0 0.0 0.00 0.09 0.00 95 1018.5
20260502010603 44 0 0.0 0.0 0.00 0.09 0.00 95 1018.5
20260502010303 44 0 0.0 0.0 0.00 0.09 0.00 95 1018.5
20260502010003 44 0 0.0 0.0 0.00 0.09 0.00 95 1018.6
20260502005703 44 0 0.0 0.0 0.00 0.09 0.00 95 1018.6
20260502005403 44 0 0.0 0.0 0.00 0.09 0.00 95 1018.7
20260502005103 44 0 0.0 0.0 0.00 0.09 0.00 95 1018.7
20260502004803 44 0 0.0 0.0 0.00 0.09 0.00 95 1018.7
20260502004714 44 0 0.0 0.0 0.00 0.09 0.00 95 1018.8
20260502004414 44 0 0.0 0.0 0.00 0.09 0.00 95 1018.7
20260502003903 44 0 0.0 0.0 0.00 0.09 0.00 94 1018.8
20260502003603 44 0 0.0 0.0 0.00 0.09 0.00 94 1018.8
20260502003303 44 0 0.0 0.0 0.00 0.09 0.00 94 1018.7
20260502003003 44 0 0.0 0.0 0.00 0.09 0.00 95 1018.8
20260502002703 45 0 0.0 0.0 0.00 0.09 0.00 95 1018.7
20260502002403 45 0 0.0 0.0 0.00 0.09 0.00 95 1018.8
20260502002103 45 0 0.0 0.0 0.00 0.09 0.00 95 1018.8
20260502001803 45 0 0.0 0.0 0.00 0.09 0.00 95 1018.8
20260502001503 45 0 0.0 0.0 0.00 0.09 0.00 95 1018.8
20260502001203 44 0 0.0 0.0 0.00 0.09 0.00 95 1018.8
20260502000903 44 0 0.0 0.0 0.00 0.09 0.00 95 1018.9
20260502000603 45 0 0.0 0.0 0.00 0.09 0.00 94 1018.9
20260502000303 45 0 0.0 0.0 0.00 0.09 0.00 94 1018.8
20260502000003 45 0 0.0 0.0 0.00 0.09 0.00 94 1018.9
20260501235704 45 0 0.0 0.0 0.00 0.09 0.00 95 1018.9
20260501235403 45 0 0.0 0.0 0.00 0.09 0.00 95 1018.9
20260501235103 45 0 0.0 0.0 0.00 0.09 0.00 95 1018.9
20260501235013 45 0 0.0 0.0 0.00 0.09 0.00 95 1019.0
20260501234713 45 0 0.0 0.0 0.00 0.09 0.00 95 1019.0
20260501234203 45 0 0.0 0.0 0.00 0.09 0.00 94 1019.0
20260501233903 46 0 0.0 0.0 0.00 0.09 0.00 94 1019.1
20260501233813 46 0 0.0 0.0 0.00 0.09 0.00 94 1019.1
20260501233303 46 0 0.0 0.0 0.00 0.09 0.00 94 1019.1
20260501233003 46 0 0.0 0.0 0.00 0.09 0.00 95 1019.1
20260501232914 46 0 0.0 0.0 0.00 0.09 0.00 95 1019.1
20260501232403 47 0 0.0 0.0 0.00 0.09 0.00 95 1019.1
20260501232103 46 0 0.0 0.0 0.00 0.09 0.00 95 1019.1
20260501231803 46 0 0.0 0.0 0.00 0.09 0.00 95 1019.1
20260501231503 46 0 0.0 0.0 0.00 0.09 0.00 95 1019.1
20260501231203 46 0 0.0 0.0 0.00 0.09 0.00 94 1019.1
20260501230903 46 0 0.0 0.0 0.00 0.09 0.00 94 1019.1
20260501230603 46 0 0.0 0.0 0.00 0.09 0.00 94 1019.1
20260501230303 46 0 0.0 0.0 0.00 0.09 0.00 94 1019.1
20260501230214 47 0 0.0 0.0 0.00 0.09 0.00 94 1019.1
20260501225703 47 0 0.0 0.0 0.00 0.09 0.09 94 1019.1
20260501225403 47 0 0.0 0.0 0.00 0.09 0.09 95 1019.1
20260501225103 47 0 0.0 0.0 0.00 0.09 0.09 95 1019.0
20260501224803 47 0 0.0 0.0 0.00 0.09 0.09 95 1019.0
20260501224503 47 276 0.0 1.0 0.00 0.09 0.09 95 1019.0
20260501224203 47 276 0.0 1.0 0.00 0.09 0.09 95 1019.0
20260501223903 47 276 0.0 1.0 0.00 0.09 0.09 95 1019.1
20260501223603 47 276 0.0 1.0 0.00 0.09 0.09 94 1019.1
20260501223303 46 0 0.0 0.0 0.00 0.09 0.09 94 1019.1
20260501223003 47 0 0.0 0.0 0.00 0.09 0.09 94 1019.0
20260501222704 47 0 0.0 0.0 0.00 0.09 0.09 94 1019.0
20260501222403 47 0 0.0 0.0 0.00 0.09 0.09 94 1019.0
20260501222313 47 0 0.0 0.0 0.00 0.09 0.09 94 1019.0
20260501221803 47 0 0.0 0.0 0.00 0.09 0.09 94 1019.0